Temperature
17 16 15 15 15 14 14 14 14 14 15 15 15 15 16 16 16 17 17 17 17 17 17 18 17 17 17 18 18 18 18 18 18 18 18 18 18 18 19 18 18 18 18
16 15 15 14 14 14 14 14 14 14 14 14 14 14 15 15 16 16 16 17 17 17 17 17 17 17 17 17 17 17 17 18 18 17 18 18 18 19 18 18 18 18 18
15 15 14 14 14 13 13 13 13 13 13 14 14 14 14 15 15 16 16 16 16 16 16 17 17 17 17 17 17 17 17 17 17 17 17 17 18 18 18 18 18 18 18
15 14 14 13 13 13 13 13 13 13 13 13 13 14 14 14 15 15 15 16 16 16 16 16 16 17 17 17 17 17 17 17 17 17 17 17 17 17 18 18 18 18 18
15 14 14 13 13 13 12 12 13 13 13 13 13 13 13 14 14 14 15 15 15 16 16 16 16 16 16 16 16 16 16 16 16 16 16 17 16 16 17 17 18 18 18
15 14 14 13 13 12 12 12 12 12 13 13 13 13 13 14 14 14 14 15 15 15 15 16 16 16 16 16 16 16 16 16 16 16 16 16 16 16 16 16 17 17 17
15 14 13 13 13 12 12 12 12 12 12 12 13 13 13 13 14 14 14 14 14 15 15 15 15 16 16 16 16 16 16 16 16 16 16 16 16 16 16 16 16 16 16
15 14 13 13 13 12 12 12 12 12 12 12 13 13 13 13 13 13 14 14 14 14 15 15 15 15 16 16 16 16 16 16 16 16 15 15 15 15 15 15 16 16 16
15 14 13 13 12 12 12 12 12 12 12 12 12 13 13 13 13 13 13 14 14 14 14 15 15 15 15 15 15 15 15 15 15 15 15 15 15 15 15 15 15 15 15
15 14 13 13 13 12 12 12 12 12 12 12 12 12 12 12 13 13 13 13 13 14 14 14 14 15 15 15 15 15 15 15 15 15 15 15 15 15 15 15 15 15 15
15 14 14 13 13 13 12 12 12 12 12 12 12 12 12 12 12 13 13 13 13 13 14 14 14 14 14 15 15 15 15 15 15 15 15 15 15 15 14 14 15 15 14
15 15 14 13 13 13 12 12 12 12 12 12 12 12 12 12 12 12 12 13 13 13 13 13 14 14 14 14 14 14 14 14 14 15 15 15 15 14 14 14 14 14 14
15 15 14 14 13 13 13 12 12 12 12 12 12 12 12 12 12 12 12 12 13 13 13 13 13 13 13 14 14 14 14 14 14 14 14 14 14 14 14 14 14 14 14
16 15 15 14 14 13 13 13 12 12 12 12 12 12 12 12 12 12 12 12 12 12 13 13 13 13 13 13 13 14 14 14 14 14 14 14 14 14 14 14 14 14 14
16 15 15 15 14 14 13 13 12 12 12 12 11 11 11 11 11 12 12 12 12 12 12 12 13 13 13 13 13 13 13 13 14 13 14 14 14 14 14 14 14 14 14
16 16 15 15 14 14 13 13 12 12 12 12 11 11 11 11 11 11 11 11 12 12 12 12 12 12 13 13 13 13 13 13 13 13 13 13 14 14 14 14 14 14 13
16 16 15 15 15 14 14 13 13 12 12 12 11 11 11 11 11 11 11 11 11 11 11 11 12 12 12 12 12 12 13 13 13 13 13 13 13 13 13 13 13 13 13
16 16 15 15 15 15 14 14 13 12 12 11 11 11 11 11 11 11 11 11 11 11 11 11 11 11 11 12 12 12 12 12 12 13 13 13 13 13 13 13 13 13 13
16 16 15 15 15 15 14 14 13 13 12 11 11 11 11 11 11 11 11 11 11 11 11 11 11 11 11 11 12 12 12 12 12 13 13 13 13 13 13 13 13 13 13
16 15 15 15 15 14 14 14 13 13 12 11 11 11 11 11 11 10 10 11 11 11 11 11 11 11 11 11 11 12 12 12 12 12 13 13 13 13 13 13 13 13 13
16 15 15 15 15 14 14 14 13 12 12 11 11 11 11 11 11 10 10 10 10 10 10 11 11 11 11 11 11 11 12 12 12 12 12 12 13 13 13 13 13 12 12
16 16 15 15 15 14 14 13 13 12 12 11 11 11 11 11 11 10 10 10 10 10 10 10 10 10 10 11 11 11 11 12 12 12 12 12 12 12 12 12 12 12 12
16 16 15 15 15 15 14 13 13 12 12 12 11 11 11 11 11 11 10 10 10 10 10 10 10 10 10 10 11 11 11 11 11 12 12 12 12 12 12 12 12 12 12
16 16 16 16 15 15 14 14 13 13 12 12 12 12 11 11 11 11 11 11 11 11 10 10 10 10 10 10 10 10 11 11 11 11 11 11 11 11 11 11 11 11 11
17 16 16 16 15 15 14 14 13 13 13 13 12 12 12 11 11 11 11 11 11 11 11 11 11 11 11 10 10 10 11 11 11 11 11 11 11 11 11 11 11 11 11
17 17 16 16 16 15 15 14 14 13 13 13 13 12 12 12 11 11 11 11 11 11 11 11 11 11 11 11 11 11 11 11 11 10 10 10 10 10 10 10 10 10 10
Wind_Speed
13 13 12 12 12 12 12 11 9 8 7 5 5 5 5 5 5 4 5 6 7 8 6 6 6 5 5 5 4 2 2 1 0 1 1 1 3 4 4 2 2 4 9
13 13 13 12 12 12 12 12 10 10 8 6 6 5 6 5 6 5 4 5 6 7 6 7 6 6 5 6 5 4 2 2 2 1 1 1 3 2 3 3 3 3 4
13 13 13 12 13 13 12 12 11 11 10 8 6 6 5 5 5 5 4 4 5 6 5 6 6 6 7 6 7 6 6 4 3 2 3 2 3 1 2 3 3 3 3
11 12 13 13 13 13 12 12 12 11 11 10 7 8 6 5 6 5 4 4 4 4 5 5 6 7 6 6 7 7 6 5 4 3 2 2 2 2 2 2 2 3 3
12 12 11 12 12 13 12 11 11 11 11 10 9 8 6 6 5 5 4 4 3 3 4 5 6 7 7 8 8 7 7 6 5 4 2 2 1 2 2 2 2 1 1
10 11 11 10 11 11 11 11 11 11 11 10 9 8 8 7 6 5 4 3 3 2 3 4 5 6 6 7 7 8 8 7 7 5 4 3 2 2 2 2 2 1 2
9 10 11 11 11 11 11 11 11 11 11 11 10 10 9 8 6 5 4 4 3 2 2 3 4 4 5 6 6 7 8 9 8 7 5 4 4 3 2 3 2 2 2
8 9 9 9 10 10 10 11 11 11 11 11 10 9 9 7 5 5 5 4 3 2 2 2 3 4 4 5 6 6 7 7 7 8 7 5 5 4 4 3 3 2 2
8 8 8 8 9 9 9 9 10 10 10 10 10 10 10 8 7 7 5 4 4 3 3 2 0 2 4 5 5 5 5 6 6 7 7 5 5 5 5 4 4 4 3
7 7 7 7 7 8 7 8 8 9 9 10 9 9 9 9 8 8 8 7 6 6 5 4 2 2 1 3 4 4 4 4 5 5 6 6 5 5 5 4 4 4 4
6 5 5 6 6 7 7 8 8 8 9 10 9 9 9 9 9 9 8 8 6 6 5 5 4 4 3 3 3 2 3 4 4 4 5 6 6 5 5 4 4 3 3
5 5 6 6 6 7 7 7 8 8 8 9 9 9 9 9 9 9 10 9 9 8 7 6 6 6 6 5 4 3 2 2 3 3 4 4 5 5 5 4 4 4 3
5 5 5 5 5 6 6 7 7 7 7 8 8 9 10 10 10 10 10 10 10 9 9 9 8 7 7 6 6 4 3 3 4 4 4 4 5 5 4 4 4 4 3
5 5 4 4 4 4 5 6 7 6 7 7 8 9 9 9 9 9 10 10 10 10 10 9 9 9 8 8 7 5 4 5 5 5 4 4 4 4 4 4 4 4 4
5 5 4 5 4 4 5 5 6 6 7 7 8 8 8 9 9 9 9 9 10 10 9 9 9 9 8 8 8 5 4 4 5 5 5 5 6 6 4 4 4 4 4
5 5 5 5 5 5 5 5 5 5 6 6 7 7 8 8 9 9 9 8 9 9 9 10 9 9 9 11 12 8 4 4 5 5 5 5 7 8 9 9 8 6 4
4 4 5 4 4 4 4 4 4 5 6 6 7 7 8 8 9 9 9 8 9 9 9 9 9 9 11 14 13 11 6 5 4 4 4 5 6 6 6 8 9 9 8
3 4 4 3 4 4 4 4 4 5 6 6 6 7 7 8 8 8 8 8 7 7 8 8 8 8 11 15 14 11 6 6 6 5 5 5 6 5 6 8 8 9 8
3 3 4 4 4 5 5 4 4 5 6 6 6 7 7 7 7 7 7 6 6 6 7 7 8 8 10 15 15 11 5 6 7 7 8 7 7 9 9 8 9 9 7
2 3 4 4 5 5 4 4 5 5 6 6 6 6 6 6 6 6 5 5 5 5 6 7 7 8 9 13 15 12 5 6 6 7 8 12 10 9 8 7 7 7 5
2 1 2 3 4 4 4 5 6 6 6 5 5 5 5 4 5 5 4 4 4 5 5 6 7 8 9 11 15 13 7 5 6 6 6 7 11 12 11 8 6 6 5
3 0 1 1 2 2 3 4 5 4 4 3 3 3 4 4 4 4 5 5 5 5 5 6 6 5 7 9 11 13 12 9 7 6 5 6 10 12 11 8 8 8 6
4 3 1 1 1 3 3 4 3 3 2 2 1 1 2 3 4 5 5 5 5 5 4 5 5 5 5 7 11 11 11 11 7 5 7 6 7 8 7 9 8 6 5
4 3 3 2 1 3 3 3 3 2 2 2 2 1 3 4 5 5 5 5 5 6 5 5 5 4 6 6 7 5 4 6 6 4 5 7 8 6 5 5 6 5 5
5 4 3 1 1 3 4 3 2 2 2 3 4 3 3 3 3 4 3 4 4 3 3 4 5 5 4 5 7 6 5 5 4 3 0 2 3 4 5 4 4 4 4
6 6 5 3 4 3 5 5 3 3 3 1 2 2 2 2 2 3 3 4 3 4 5 5 4 3 4 4 7 8 8 9 9 4 3 4 4 4 4 4 4 4 4
Wind_Direction
4 9 4 1 355 350 344 339 335 332 328 324 318 311 304 298 283 262 245 238 232 223 211 210 204 199 196 189 192 189 176 208 251 258 323 306 226 197 186 207 191 179 165
2 2 359 357 353 349 344 338 339 334 329 323 313 294 292 286 281 272 258 247 240 231 220 207 198 197 196 193 192 179 169 193 198 171 163 292 308 290 193 191 208 200 165
359 358 356 357 353 351 347 342 341 337 335 335 323 313 304 293 288 284 274 253 240 231 221 205 195 198 194 193 193 187 179 192 201 174 156 174 220 261 284 208 201 210 187
1 2 359 358 353 352 349 345 345 344 343 338 328 320 309 300 292 289 277 271 252 236 226 213 202 198 198 194 195 188 179 174 199 206 190 197 162 164 255 272 214 211 199
3 3 3 0 356 355 353 351 350 350 347 340 333 325 317 305 296 294 290 283 261 238 224 215 206 201 200 199 195 186 181 182 190 194 189 215 223 214 192 247 286 302 275
2 3 6 3 358 357 355 354 354 353 349 345 344 340 330 321 318 314 313 306 287 261 239 219 202 200 195 197 197 190 187 189 191 186 187 186 182 194 190 206 223 251 285
5 5 7 0 358 358 358 356 357 356 354 353 355 349 343 337 333 332 324 318 311 291 245 239 207 201 197 196 195 193 194 189 184 183 189 193 200 186 189 197 206 222 260
10 11 10 359 357 358 359 358 357 358 359 0 358 357 356 352 346 341 338 332 329 309 301 249 209 198 198 196 193 198 198 190 186 190 189 194 200 195 190 180 171 197 231
10 12 10 3 1 359 0 0 360 1 2 1 360 5 2 359 354 352 353 347 347 355 356 360 24 200 198 192 188 193 193 185 187 190 189 187 192 193 193 184 177 176 191
10 11 10 8 3 358 359 6 8 7 3 2 6 8 5 7 7 10 10 6 6 8 15 21 28 48 108 160 169 170 173 171 180 183 186 185 185 186 182 178 177 175 174
9 13 13 10 7 2 5 9 8 11 8 5 5 7 11 16 17 14 10 10 11 13 21 31 38 49 55 70 103 129 152 167 178 185 184 182 175 173 173 168 169 174 168
11 23 21 15 10 9 9 13 13 13 11 7 7 10 18 20 18 15 12 14 17 20 26 38 41 48 50 53 64 76 102 143 151 154 150 151 151 148 151 159 165 170 171
20 28 19 15 10 10 13 17 19 16 14 13 12 14 20 20 18 16 13 18 22 24 28 35 41 46 47 45 47 51 66 82 96 109 123 129 137 146 152 156 156 158 152
27 27 13 20 15 16 22 24 21 20 23 19 17 19 20 20 20 19 19 23 22 27 32 35 40 43 45 42 38 39 52 67 72 78 90 104 119 140 154 156 152 147 142
24 19 15 21 13 24 32 35 25 22 27 26 26 21 21 22 20 21 22 24 23 29 31 37 41 39 41 35 27 26 46 65 72 71 82 95 102 101 113 127 134 136 138
23 14 18 27 11 29 34 37 29 27 31 31 30 25 27 25 20 21 23 27 27 29 32 39 44 41 38 31 29 31 33 56 70 71 78 98 101 102 97 96 96 103 121
26 21 19 20 5 34 47 49 37 36 38 34 34 32 34 31 25 22 22 26 30 31 35 38 42 44 35 33 30 26 33 52 67 69 74 92 94 97 101 95 85 71 70
33 23 6 6 18 30 39 69 64 52 47 34 30 37 38 32 28 25 24 26 29 31 33 36 38 41 34 30 28 27 45 55 65 63 61 74 75 77 85 94 82 69 55
37 19 354 353 29 37 26 45 55 60 53 38 30 37 40 33 25 24 26 24 25 29 35 38 37 42 35 28 27 25 44 60 63 63 57 58 65 68 84 97 97 91 78
52 5 344 11 25 28 24 38 53 58 53 42 35 34 40 38 28 21 22 20 27 30 41 44 42 46 43 33 31 27 35 51 60 61 58 54 57 60 82 96 99 101 104
121 325 337 38 31 15 20 43 53 57 57 48 41 35 28 43 42 14 13 25 28 27 43 52 54 52 46 40 38 35 34 40 58 60 56 47 53 62 69 78 90 99 103
153 170 333 43 68 32 29 66 69 70 72 63 45 52 40 27 43 28 16 20 21 30 39 47 49 52 51 42 38 41 44 51 59 60 56 51 57 61 63 66 64 67 78
163 157 209 281 167 98 62 77 89 100 114 111 73 63 89 68 40 31 29 23 21 27 31 37 43 44 46 35 32 42 52 56 64 63 63 60 61 59 59 56 55 63 75
171 172 213 224 133 112 111 111 129 171 162 146 136 82 69 69 64 44 38 41 26 20 21 25 28 40 47 26 10 10 45 61 63 68 67 64 64 62 51 53 58 61 75
172 188 211 161 192 166 149 140 161 222 211 180 164 140 109 95 89 91 58 59 71 60 35 19 19 28 36 14 11 20 22 23 23 357 64 80 73 66 59 55 56 65 70
186 186 179 199 234 189 159 154 167 264 268 139 111 124 140 142 151 142 127 57 82 100 78 64 61 70 61 23 20 22 17 11 5 21 64 75 73 75 78 77 64 60 59
Height
1552 1549 1546 1542 1539 1535 1532 1529 1526 1523 1521 1518 1516 1514 1513 1512 1512 1511 1512 1512 1514 1515 1517 1518 1520 1523 1525 1527 1530 1533 1535 1538 1541 1544 1545 1547 1548 1550 1551 1553 1555 1556 1556
1551 1548 1545 1541 1537 1534 1530 1527 1524 1521 1518 1515 1513 1511 1509 1508 1508 1507 1507 1508 1509 1510 1512 1513 1515 1517 1520 1523 1526 1528 1531 1533 1537 1540 1542 1544 1546 1547 1548 1550 1552 1554 1555
1551 1548 1544 1540 1536 1532 1528 1525 1521 1518 1515 1512 1510 1507 1506 1504 1503 1503 1503 1503 1503 1505 1506 1508 1510 1512 1515 1517 1520 1523 1526 1528 1532 1536 1539 1540 1541 1543 1545 1547 1548 1550 1552
1551 1548 1544 1539 1535 1531 1527 1523 1520 1516 1512 1509 1507 1504 1503 1501 1499 1499 1498 1498 1499 1500 1501 1503 1505 1507 1510 1512 1515 1518 1521 1524 1527 1531 1534 1537 1539 1541 1541 1544 1545 1547 1549
1551 1548 1544 1540 1536 1531 1526 1522 1518 1514 1511 1507 1505 1502 1500 1498 1497 1496 1495 1494 1495 1495 1497 1498 1500 1502 1505 1507 1510 1513 1516 1519 1522 1526 1529 1532 1535 1537 1539 1540 1542 1544 1545
1551 1548 1544 1540 1536 1531 1527 1522 1518 1514 1510 1506 1503 1500 1498 1496 1495 1493 1492 1491 1491 1492 1493 1495 1496 1498 1500 1503 1505 1508 1511 1514 1517 1520 1524 1527 1530 1532 1535 1537 1539 1541 1542
1551 1548 1544 1540 1536 1531 1527 1522 1518 1514 1510 1506 1503 1500 1497 1495 1493 1491 1490 1490 1489 1489 1490 1492 1493 1494 1496 1499 1501 1504 1506 1509 1512 1515 1519 1522 1526 1529 1532 1534 1536 1538 1539
1552 1548 1545 1541 1537 1533 1528 1523 1519 1515 1511 1507 1503 1500 1497 1494 1492 1491 1490 1489 1488 1488 1488 1489 1490 1492 1493 1495 1498 1500 1503 1505 1508 1511 1514 1517 1521 1524 1527 1530 1532 1534 1536
1552 1549 1546 1542 1538 1534 1529 1525 1521 1516 1512 1508 1505 1501 1498 1495 1493 1492 1490 1489 1488 1487 1487 1488 1488 1490 1491 1493 1494 1497 1499 1501 1504 1507 1510 1513 1516 1519 1522 1525 1528 1531 1532
1552 1549 1546 1543 1539 1535 1531 1527 1523 1519 1514 1511 1507 1504 1500 1497 1495 1493 1491 1490 1488 1487 1487 1487 1487 1488 1489 1491 1492 1494 1496 1498 1500 1503 1506 1509 1512 1515 1518 1521 1523 1526 1528
1552 1549 1546 1543 1540 1536 1532 1528 1524 1520 1516 1513 1509 1506 1503 1500 1498 1495 1493 1492 1490 1489 1488 1488 1488 1488 1489 1490 1491 1493 1494 1496 1499 1501 1503 1506 1508 1511 1514 1517 1519 1522 1524
1552 1549 1547 1544 1541 1537 1534 1530 1526 1522 1519 1516 1512 1509 1506 1503 1500 1498 1496 1494 1492 1491 1490 1489 1489 1489 1489 1490 1491 1492 1494 1495 1497 1499 1502 1504 1506 1509 1512 1514 1516 1519 1521
1552 1550 1547 1544 1541 1538 1535 1532 1528 1525 1521 1518 1515 1512 1509 1506 1503 1501 1499 1497 1495 1493 1492 1491 1490 1490 1490 1491 1492 1493 1494 1495 1497 1499 1501 1503 1505 1508 1510 1512 1514 1516 1519
1551 1550 1547 1545 1542 1539 1537 1533 1530 1527 1524 1521 1518 1515 1512 1509 1507 1504 1502 1500 1498 1496 1494 1493 1492 1492 1492 1492 1493 1494 1495 1496 1498 1499 1501 1503 1505 1507 1509 1511 1513 1515 1517
1551 1550 1548 1545 1543 1540 1538 1535 1532 1529 1526 1523 1520 1518 1515 1512 1510 1507 1505 1503 1501 1499 1497 1496 1495 1494 1494 1494 1494 1495 1496 1497 1498 1500 1501 1503 1505 1506 1508 1510 1512 1514 1516
1551 1550 1548 1546 1544 1541 1539 1536 1534 1531 1529 1526 1523 1520 1518 1515 1512 1510 1508 1506 1504 1502 1500 1498 1497 1496 1496 1496 1496 1497 1497 1498 1500 1501 1502 1504 1505 1507 1509 1511 1512 1514 1516
1550 1549 1548 1546 1544 1542 1540 1537 1535 1533 1530 1528 1526 1523 1520 1517 1515 1513 1511 1509 1507 1505 1503 1501 1500 1499 1498 1498 1498 1498 1499 1500 1501 1503 1504 1505 1507 1508 1510 1511 1513 1515 1517
1550 1549 1548 1546 1545 1543 1541 1538 1536 1534 1532 1530 1528 1526 1523 1520 1518 1516 1514 1512 1510 1508 1507 1505 1504 1502 1501 1501 1501 1501 1501 1502 1503 1505 1506 1507 1508 1510 1511 1513 1515 1516 1518
1549 1549 1548 1546 1545 1543 1542 1540 1538 1536 1533 1531 1530 1528 1525 1523 1521 1518 1517 1515 1513 1512 1510 1508 1507 1506 1505 1504 1504 1504 1504 1504 1505 1507 1508 1509 1510 1512 1513 1515 1516 1518 1519
1548 1548 1547 1546 1545 1544 1542 1540 1539 1537 1535 1533 1531 1530 1527 1525 1523 1521 1520 1518 1516 1515 1513 1512 1511 1509 1508 1507 1507 1506 1507 1507 1508 1509 1510 1511 1512 1514 1515 1516 1518 1519 1521
1548 1547 1547 1546 1545 1544 1542 1541 1539 1538 1536 1534 1533 1531 1530 1528 1526 1524 1522 1521 1519 1518 1516 1515 1514 1513 1511 1510 1509 1509 1509 1510 1511 1511 1512 1513 1515 1516 1517 1519 1520 1522 1523
1547 1546 1546 1546 1545 1544 1543 1541 1540 1538 1537 1536 1534 1533 1531 1530 1528 1527 1525 1523 1522 1520 1519 1518 1517 1516 1515 1514 1513 1513 1512 1513 1513 1514 1515 1516 1517 1518 1520 1521 1522 1524 1525
1545 1546 1545 1545 1545 1544 1543 1541 1540 1539 1538 1537 1536 1535 1534 1532 1530 1529 1527 1525 1524 1523 1522 1521 1520 1519 1518 1517 1516 1516 1516 1516 1516 1517 1517 1518 1519 1520 1521 1523 1524 1525 1526
1544 1544 1544 1544 1544 1543 1543 1542 1540 1540 1539 1538 1537 1536 1535 1534 1532 1531 1529 1527 1526 1525 1524 1523 1522 1521 1520 1519 1519 1519 1519 1519 1519 1519 1520 1521 1522 1523 1523 1525 1526 1527 1528
1542 1543 1543 1543 1543 1543 1542 1541 1540 1540 1539 1539 1538 1537 1536 1535 1534 1533 1531 1530 1528 1527 1526 1525 1523 1523 1522 1521 1521 1521 1521 1521 1521 1522 1523 1523 1524 1525 1525 1526 1527 1528 1529
1540 1541 1541 1541 1542 1542 1541 1540 1540 1539 1539 1539 1539 1538 1537 1536 1535 1534 1533 1532 1530 1529 1528 1526 1525 1524 1524 1523 1523 1523 1523 1523 1523 1524 1525 1525 1526 1527 1527 1528 1528 1529 1530